Temp
-22 -23 -23 -24 -25 -26 -27 -27 -27 -28 -28 -28 -29 -29 -30 -31 -32 -32 -33 -33 -33 -32 -32 -32 -31 -30 -30 -29 -29 -28 -27 -26 -26 -26 -26 -26 -25 -24 -24 -23 -23 -22 -22 -22 -22 -22 -22 -21 -21 -21 -20 -21 -20 -20
-23 -23 -23 -24 -25 -26 -27 -28 -28 -28 -28 -29 -30 -31 -32 -33 -33 -34 -34 -34 -34 -34 -34 -33 -33 -33 -32 -31 -31 -30 -29 -28 -27 -27 -27 -26 -26 -25 -24 -24 -23 -23 -22 -22 -22 -22 -23 -22 -22 -21 -21 -21 -21 -21
-23 -23 -24 -25 -26 -27 -27 -28 -28 -28 -29 -31 -32 -33 -33 -34 -34 -34 -34 -34 -35 -34 -35 -35 -34 -34 -33 -33 -32 -32 -31 -30 -28 -28 -27 -27 -27 -26 -26 -24 -24 -23 -22 -22 -22 -22 -22 -23 -22 -22 -22 -22 -21 -21
-24 -24 -25 -26 -26 -27 -28 -28 -28 -29 -31 -32 -33 -33 -34 -34 -34 -35 -35 -35 -35 -35 -35 -35 -34 -34 -33 -33 -33 -32 -31 -31 -30 -29 -28 -28 -27 -27 -27 -26 -25 -25 -24 -23 -22 -22 -22 -22 -22 -22 -22 -22 -22 -22
-24 -25 -26 -26 -27 -28 -28 -28 -29 -30 -31 -33 -33 -33 -34 -35 -35 -35 -35 -35 -35 -35 -35 -35 -34 -34 -33 -33 -33 -32 -32 -31 -31 -30 -29 -29 -28 -28 -27 -27 -26 -24 -24 -23 -24 -23 -22 -22 -22 -22 -22 -22 -22 -22
-25 -25 -26 -27 -28 -28 -28 -29 -30 -30 -32 -33 -34 -34 -34 -35 -35 -35 -35 -35 -35 -35 -35 -35 -34 -34 -34 -34 -33 -33 -32 -32 -32 -31 -30 -30 -29 -28 -28 -28 -27 -27 -26 -25 -24 -23 -23 -22 -23 -22 -22 -23 -22 -22
-25 -26 -27 -27 -28 -28 -29 -30 -30 -30 -33 -34 -34 -34 -35 -35 -35 -35 -35 -35 -35 -35 -35 -35 -34 -34 -34 -34 -34 -34 -34 -34 -34 -33 -32 -31 -30 -29 -28 -28 -27 -27 -26 -26 -26 -24 -23 -23 -23 -23 -23 -23 -23 -23
-26 -27 -27 -28 -28 -29 -30 -30 -30 -31 -33 -34 -34 -34 -35 -35 -35 -35 -35 -35 -35 -35 -35 -35 -34 -34 -34 -34 -34 -34 -35 -35 -34 -34 -34 -33 -31 -29 -28 -28 -28 -28 -27 -27 -26 -26 -25 -24 -24 -24 -23 -23 -23 -22
-26 -27 -28 -28 -29 -30 -30 -30 -30 -32 -34 -34 -34 -34 -35 -35 -35 -35 -35 -35 -35 -35 -34 -34 -34 -34 -33 -34 -34 -34 -34 -34 -33 -34 -34 -33 -32 -30 -29 -29 -28 -28 -28 -27 -26 -26 -26 -25 -25 -24 -24 -23 -23 -23
-27 -27 -28 -29 -29 -30 -30 -30 -30 -32 -34 -34 -34 -34 -35 -35 -35 -35 -35 -35 -35 -34 -34 -34 -34 -33 -33 -34 -34 -34 -34 -34 -33 -34 -34 -33 -32 -32 -30 -29 -29 -28 -28 -27 -27 -27 -26 -26 -25 -25 -24 -24 -23 -24
-27 -28 -29 -29 -30 -30 -30 -30 -31 -32 -34 -34 -34 -34 -34 -35 -35 -35 -35 -35 -35 -34 -34 -34 -34 -34 -33 -33 -35 -34 -34 -34 -33 -33 -33 -34 -33 -33 -31 -30 -29 -29 -29 -28 -28 -27 -27 -26 -26 -25 -25 -25 -24 -24
-28 -28 -29 -29 -30 -30 -31 -31 -31 -33 -34 -34 -34 -34 -35 -35 -35 -36 -35 -35 -35 -35 -35 -34 -34 -34 -34 -35 -35 -35 -34 -34 -33 -33 -33 -33 -33 -33 -32 -31 -29 -29 -29 -28 -27 -27 -27 -27 -26 -25 -25 -25 -25 -24
-28 -29 -29 -30 -30 -30 -31 -31 -31 -33 -34 -34 -34 -34 -35 -35 -35 -35 -35 -35 -35 -35 -34 -34 -34 -34 -34 -35 -35 -34 -34 -34 -33 -33 -33 -33 -33 -33 -33 -32 -32 -31 -29 -28 -28 -28 -27 -26 -27 -26 -26 -25 -25 -25
-28 -29 -29 -30 -30 -30 -31 -31 -32 -32 -34 -34 -34 -35 -35 -35 -35 -35 -35 -35 -35 -35 -35 -34 -34 -34 -34 -34 -34 -34 -34 -34 -33 -33 -33 -33 -33 -33 -33 -32 -32 -31 -31 -29 -29 -29 -28 -28 -28 -27 -27 -26 -26 -26
-29 -29 -30 -30 -30 -30 -31 -31 -32 -32 -33 -34 -34 -35 -35 -35 -35 -35 -35 -34 -34 -34 -35 -34 -34 -34 -34 -34 -34 -34 -34 -34 -34 -33 -33 -33 -33 -33 -33 -33 -32 -32 -32 -31 -29 -29 -29 -28 -28 -28 -27 -27 -27 -26
-29 -29 -30 -30 -30 -31 -31 -32 -32 -33 -33 -34 -34 -34 -34 -34 -34 -34 -34 -34 -34 -34 -34 -34 -34 -34 -34 -34 -34 -34 -34 -34 -34 -33 -33 -33 -33 -33 -33 -33 -33 -33 -32 -32 -31 -30 -29 -29 -29 -28 -28 -28 -27 -27
-29 -29 -30 -30 -30 -31 -31 -32 -32 -33 -33 -33 -33 -34 -34 -34 -34 -34 -34 -34 -34 -34 -34 -34 -34 -34 -34 -34 -34 -34 -34 -34 -34 -34 -33 -33 -33 -33 -33 -33 -33 -33 -33 -33 -32 -32 -31 -30 -29 -29 -29 -28 -28 -27
-29 -29 -30 -30 -30 -31 -31 -31 -32 -32 -33 -33 -33 -33 -33 -33 -34 -34 -34 -34 -34 -34 -34 -34 -34 -34 -34 -34 -34 -34 -34 -34 -34 -34 -33 -33 -33 -33 -33 -33 -33 -33 -33 -33 -33 -33 -32 -31 -30 -29 -28 -28 -28 -27
-29 -30 -30 -30 -30 -30 -31 -31 -31 -32 -32 -32 -32 -32 -32 -33 -33 -33 -34 -34 -33 -33 -33 -33 -33 -33 -34 -34 -34 -34 -34 -34 -34 -34 -33 -33 -34 -33 -33 -33 -33 -33 -33 -33 -33 -33 -32 -32 -31 -30 -29 -28 -28 -27
-30 -30 -30 -30 -30 -30 -30 -31 -31 -31 -31 -31 -31 -32 -32 -32 -32 -32 -33 -33 -33 -32 -32 -33 -33 -33 -33 -34 -34 -34 -34 -33 -33 -33 -33 -33 -33 -33 -33 -33 -33 -33 -33 -32 -32 -32 -32 -31 -31 -31 -30 -29 -28 -28
-30 -30 -30 -30 -30 -30 -30 -30 -31 -30 -31 -31 -31 -31 -31 -31 -31 -32 -32 -32 -32 -32 -33 -33 -33 -33 -33 -33 -33 -33 -33 -33 -33 -33 -33 -33 -33 -33 -33 -33 -33 -33 -32 -32 -31 -31 -31 -30 -30 -31 -31 -30 -29 -28
-30 -30 -30 -30 -30 -30 -30 -30 -30 -30 -30 -30 -30 -31 -31 -31 -31 -31 -32 -32 -32 -33 -33 -33 -33 -33 -33 -33 -33 -33 -33 -33 -33 -33 -32 -32 -32 -32 -33 -32 -32 -31 -31 -31 -31 -30 -30 -30 -30 -30 -30 -30 -30 -30
-30 -30 -30 -30 -30 -30 -30 -30 -30 -30 -30 -30 -30 -30 -31 -31 -31 -31 -31 -31 -31 -31 -32 -32 -33 -33 -33 -33 -33 -33 -32 -32 -32 -32 -32 -32 -32 -31 -31 -31 -31 -31 -31 -31 -31 -30 -30 -30 -30 -30 -30 -30 -30 -30
-31 -30 -30 -30 -30 -30 -30 -30 -30 -30 -30 -30 -30 -30 -30 -31 -31 -31 -31 -31 -31 -31 -30 -30 -30 -31 -31 -31 -32 -32 -32 -32 -32 -31 -31 -31 -31 -31 -31 -31 -31 -31 -31 -31 -30 -30 -30 -30 -30 -30 -30 -30 -30 -30
-30 -31 -30 -30 -30 -30 -30 -31 -30 -31 -31 -30 -30 -30 -30 -30 -30 -31 -31 -31 -31 -31 -31 -31 -31 -31 -31 -31 -31 -31 -31 -31 -31 -31 -31 -31 -31 -31 -31 -31 -31 -30 -30 -30 -30 -30 -30 -30 -30 -30 -30 -30 -30 -30
-30 -30 -30 -30 -30 -30 -31 -31 -31 -31 -31 -31 -31 -31 -31 -31 -31 -31 -31 -30 -30 -30 -31 -31 -31 -31 -31 -31 -31 -31 -31 -31 -31 -31 -31 -31 -31 -31 -31 -31 -30 -30 -30 -30 -30 -30 -30 -29 -29 -29 -29 -30 -29 -30
-30 -30 -30 -30 -30 -31 -31 -31 -31 -31 -31 -31 -31 -31 -31 -31 -31 -31 -31 -31 -31 -31 -31 -31 -31 -31 -31 -31 -31 -31 -31 -31 -31 -31 -31 -31 -31 -31 -31 -31 -30 -30 -30 -30 -30 -30 -30 -30 -30 -30 -30 -29 -29 -29
-30 -29 -30 -30 -31 -31 -31 -31 -31 -31 -31 -31 -31 -31 -31 -31 -31 -31 -31 -31 -31 -31 -31 -31 -31 -31 -31 -31 -31 -31 -31 -31 -30 -31 -31 -31 -31 -31 -31 -31 -31 -31 -31 -30 -30 -30 -31 -31 -31 -31 -30 -30 -30 -29
-30 -30 -30 -30 -31 -31 -30 -31 -31 -31 -31 -31 -31 -31 -31 -31 -31 -31 -31 -31 -31 -31 -31 -31 -31 -30 -30 -30 -30 -30 -30 -30 -30 -30 -31 -31 -32 -32 -32 -32 -31 -31 -31 -31 -31 -31 -31 -31 -31 -31 -31 -30 -30 -30
-30 -30 -30 -30 -30 -30 -30 -31 -31 -31 -31 -31 -31 -31 -31 -31 -31 -31 -31 -31 -31 -32 -32 -31 -31 -31 -30 -30 -30 -30 -30 -30 -30 -31 -31 -32 -33 -33 -32 -32 -32 -32 -32 -32 -32 -32 -32 -32 -31 -31 -31 -31 -30 -30
-30 -30 -30 -30 -30 -30 -30 -31 -31 -31 -31 -31 -31 -30 -30 -31 -31 -31 -31 -31 -31 -31 -32 -31 -31 -31 -31 -31 -31 -31 -31 -30 -31 -31 -32 -32 -32 -33 -32 -32 -32 -32 -32 -32 -32 -32 -32 -32 -32 -31 -31 -31 -31 -31
-30 -30 -30 -30 -30 -30 -31 -30 -30 -30 -30 -30 -30 -30 -30 -30 -30 -31 -31 -31 -31 -31 -31 -31 -32 -32 -31 -31 -31 -31 -31 -31 -31 -32 -32 -32 -32 -32 -32 -32 -32 -32 -32 -32 -32 -32 -32 -32 -32 -32 -31 -31 -31 -31
-30 -30 -30 -30 -30 -30 -30 -30 -30 -30 -30 -30 -30 -30 -30 -30 -30 -31 -31 -31 -31 -31 -31 -31 -32 -32 -32 -31 -31 -31 -31 -31 -31 -32 -32 -32 -32 -32 -32 -32 -32 -32 -32 -32 -32 -32 -32 -32 -32 -32 -32 -31 -31 -31
Height
5562 5556 5549 5541 5534 5528 5521 5515 5510 5505 5499 5493 5486 5479 5473 5467 5461 5458 5454 5452 5449 5448 5445 5446 5446 5449 5452 5453 5457 5460 5465 5468 5473 5477 5483 5489 5495 5501 5507 5512 5519 5527 5535 5543 5551 5558 5563 5569 5577 5584 5593 5598 5608 5615
5554 5548 5540 5533 5526 5520 5513 5508 5502 5496 5490 5482 5475 5469 5463 5458 5453 5449 5446 5442 5440 5439 5437 5436 5438 5440 5442 5445 5448 5450 5453 5458 5462 5467 5473 5480 5487 5493 5498 5504 5509 5520 5528 5536 5543 5550 5556 5562 5570 5578 5584 5590 5596 5604
5546 5538 5532 5525 5518 5512 5506 5500 5494 5487 5479 5472 5466 5461 5455 5450 5446 5442 5439 5435 5433 5433 5433 5432 5432 5433 5436 5438 5441 5443 5445 5449 5452 5457 5464 5471 5478 5485 5489 5496 5503 5511 5518 5526 5534 5540 5547 5556 5564 5570 5577 5583 5587 5594
5536 5529 5523 5516 5510 5505 5499 5493 5485 5477 5470 5464 5459 5454 5448 5444 5441 5437 5435 5433 5431 5430 5430 5430 5430 5431 5432 5433 5435 5437 5439 5442 5444 5448 5454 5461 5470 5476 5483 5489 5495 5502 5509 5518 5527 5533 5540 5548 5555 5562 5569 5575 5579 5585
5527 5521 5515 5508 5503 5498 5491 5485 5477 5469 5463 5457 5452 5448 5443 5440 5437 5434 5432 5431 5430 5429 5429 5428 5427 5428 5429 5429 5429 5431 5433 5434 5437 5441 5446 5453 5460 5468 5475 5483 5488 5495 5501 5507 5521 5525 5532 5539 5545 5551 5559 5564 5570 5577
5518 5513 5507 5501 5496 5491 5484 5477 5469 5462 5455 5450 5447 5443 5439 5436 5432 5429 5428 5428 5426 5425 5426 5426 5426 5425 5425 5426 5426 5426 5427 5428 5431 5433 5438 5444 5450 5458 5465 5473 5481 5487 5492 5498 5509 5516 5523 5531 5536 5542 5548 5553 5560 5566
5510 5505 5500 5494 5489 5485 5478 5470 5463 5455 5448 5444 5441 5438 5435 5432 5429 5426 5426 5425 5424 5423 5424 5425 5423 5423 5423 5423 5423 5423 5423 5424 5426 5428 5431 5435 5441 5447 5456 5467 5476 5479 5484 5491 5496 5507 5513 5521 5527 5531 5536 5542 5549 5556
5501 5497 5493 5488 5483 5478 5471 5464 5457 5448 5442 5438 5436 5434 5432 5430 5426 5424 5423 5422 5422 5422 5422 5422 5421 5421 5421 5421 5421 5422 5421 5422 5423 5424 5427 5429 5432 5437 5449 5462 5465 5470 5477 5485 5490 5496 5504 5512 5515 5522 5528 5532 5539 5547
5493 5490 5486 5481 5477 5472 5466 5459 5451 5443 5436 5433 5432 5431 5430 5428 5425 5423 5422 5420 5420 5421 5419 5419 5419 5419 5419 5419 5419 5420 5421 5421 5422 5422 5424 5424 5426 5432 5438 5445 5452 5461 5470 5476 5484 5488 5493 5500 5505 5509 5516 5525 5528 5535
5487 5484 5480 5476 5471 5467 5461 5454 5447 5438 5431 5430 5430 5429 5428 5426 5423 5422 5420 5418 5417 5418 5417 5417 5418 5418 5418 5417 5418 5420 5420 5420 5419 5421 5421 5421 5422 5421 5427 5436 5444 5453 5460 5469 5475 5480 5485 5490 5496 5501 5506 5513 5520 5526
5480 5477 5474 5470 5466 5462 5456 5450 5442 5434 5427 5427 5426 5427 5426 5424 5423 5420 5419 5418 5417 5417 5416 5417 5417 5417 5416 5414 5415 5417 5418 5420 5419 5420 5419 5418 5418 5418 5421 5427 5436 5445 5454 5463 5467 5472 5477 5484 5488 5492 5498 5502 5508 5515
5474 5471 5468 5465 5462 5457 5452 5445 5438 5431 5426 5425 5425 5425 5423 5422 5420 5418 5417 5418 5417 5417 5417 5417 5417 5416 5414 5412 5413 5415 5417 5419 5419 5419 5419 5418 5418 5418 5419 5422 5428 5436 5445 5452 5458 5464 5469 5474 5479 5485 5487 5492 5497 5503
5467 5465 5462 5460 5458 5453 5448 5443 5436 5429 5426 5425 5424 5423 5422 5421 5419 5417 5417 5417 5417 5417 5417 5418 5417 5416 5415 5412 5412 5413 5416 5418 5419 5418 5420 5420 5419 5419 5419 5421 5426 5430 5437 5444 5449 5454 5459 5464 5469 5473 5479 5483 5487 5492
5461 5459 5457 5456 5453 5450 5446 5440 5435 5429 5425 5424 5423 5421 5419 5418 5418 5418 5418 5418 5418 5417 5417 5417 5416 5416 5415 5414 5413 5415 5417 5417 5418 5419 5420 5420 5420 5420 5419 5421 5424 5427 5429 5435 5440 5445 5450 5455 5460 5464 5469 5474 5479 5483
5455 5454 5453 5452 5449 5446 5442 5438 5434 5430 5426 5423 5421 5421 5420 5420 5419 5419 5419 5418 5418 5417 5417 5416 5415 5415 5413 5414 5414 5415 5416 5417 5418 5419 5419 5419 5419 5419 5419 5420 5421 5423 5424 5428 5433 5438 5441 5444 5450 5456 5460 5464 5468 5473
5450 5449 5449 5448 5445 5442 5440 5436 5433 5430 5427 5425 5423 5422 5421 5420 5420 5419 5418 5417 5417 5416 5415 5415 5414 5413 5413 5413 5414 5415 5416 5416 5417 5418 5418 5419 5419 5419 5419 5420 5420 5421 5422 5423 5425 5429 5433 5436 5439 5444 5449 5453 5458 5462
5444 5444 5445 5444 5442 5440 5437 5435 5432 5430 5428 5426 5425 5423 5421 5419 5418 5417 5416 5415 5414 5413 5412 5411 5411 5411 5411 5412 5413 5413 5414 5414 5414 5415 5415 5416 5416 5417 5417 5418 5418 5419 5420 5420 5421 5422 5423 5425 5428 5432 5436 5440 5446 5450
5438 5440 5441 5440 5439 5438 5436 5433 5431 5429 5427 5425 5423 5421 5419 5418 5416 5414 5412 5411 5410 5410 5409 5408 5407 5408 5409 5410 5410 5410 5409 5409 5409 5410 5411 5411 5412 5413 5413 5413 5414 5415 5415 5416 5416 5417 5417 5418 5420 5421 5424 5427 5433 5438
5433 5435 5436 5437 5436 5436 5434 5433 5430 5428 5425 5422 5420 5418 5416 5414 5413 5411 5409 5407 5405 5404 5403 5403 5402 5404 5406 5405 5404 5404 5405 5405 5406 5406 5407 5407 5408 5408 5408 5409 5409 5410 5410 5410 5409 5409 5409 5409 5409 5411 5413 5416 5420 5424
5427 5430 5432 5432 5433 5433 5432 5431 5429 5427 5425 5423 5419 5417 5414 5412 5409 5407 5404 5402 5400 5398 5397 5397 5398 5398 5398 5399 5398 5398 5399 5400 5401 5402 5403 5403 5403 5404 5404 5404 5404 5403 5402 5401 5400 5400 5399 5399 5399 5399 5400 5402 5405 5410
5421 5424 5427 5428 5429 5430 5430 5430 5428 5427 5425 5423 5421 5418 5415 5412 5408 5405 5402 5398 5395 5393 5392 5391 5390 5391 5391 5392 5392 5394 5395 5395 5396 5397 5398 5398 5398 5398 5398 5397 5396 5395 5393 5392 5391 5390 5390 5390 5390 5389 5389 5388 5388 5390
5415 5418 5421 5422 5424 5426 5427 5427 5427 5426 5424 5423 5421 5419 5416 5414 5410 5405 5401 5397 5393 5388 5385 5383 5383 5385 5386 5388 5389 5390 5391 5391 5392 5393 5393 5393 5393 5393 5392 5390 5388 5388 5388 5388 5387 5387 5386 5385 5384 5383 5382 5380 5380 5379
5408 5412 5415 5417 5419 5421 5424 5424 5424 5424 5423 5422 5421 5419 5417 5414 5412 5408 5404 5399 5394 5388 5383 5379 5378 5380 5382 5384 5385 5387 5388 5388 5389 5389 5389 5389 5388 5387 5387 5387 5387 5386 5386 5385 5384 5383 5382 5380 5379 5377 5374 5373 5372 5371
5401 5405 5408 5410 5414 5417 5418 5419 5420 5420 5420 5419 5418 5417 5416 5414 5412 5410 5407 5404 5401 5396 5392 5389 5386 5384 5384 5384 5385 5385 5386 5386 5386 5386 5386 5386 5386 5386 5386 5386 5385 5385 5384 5382 5381 5379 5377 5375 5373 5371 5368 5365 5364 5363
5394 5398 5400 5405 5408 5411 5413 5414 5415 5416 5416 5416 5416 5415 5414 5412 5411 5409 5407 5406 5403 5401 5398 5396 5393 5391 5390 5388 5387 5387 5387 5387 5387 5386 5386 5386 5386 5386 5385 5384 5383 5382 5380 5378 5377 5374 5372 5370 5368 5365 5363 5360 5358 5356
5386 5390 5393 5398 5403 5405 5408 5409 5410 5411 5411 5412 5412 5412 5411 5410 5409 5407 5405 5404 5402 5401 5400 5398 5396 5394 5393 5392 5391 5390 5389 5388 5387 5387 5386 5385 5385 5384 5383 5382 5380 5378 5376 5374 5372 5369 5367 5365 5362 5360 5358 5355 5353 5350
5376 5381 5388 5392 5396 5399 5401 5403 5404 5406 5406 5407 5407 5407 5406 5406 5405 5404 5402 5401 5400 5398 5397 5396 5395 5394 5393 5392 5391 5390 5389 5388 5387 5386 5384 5383 5382 5380 5379 5377 5376 5374 5371 5369 5366 5363 5360 5358 5355 5352 5351 5350 5348 5345
5372 5378 5383 5387 5388 5391 5393 5395 5398 5400 5400 5402 5402 5401 5401 5400 5399 5398 5397 5395 5394 5394 5393 5392 5391 5390 5389 5388 5387 5386 5385 5384 5383 5381 5380 5378 5376 5375 5373 5372 5371 5369 5367 5364 5361 5358 5355 5352 5349 5346 5344 5344 5343 5342
5369 5374 5376 5379 5381 5383 5386 5390 5392 5394 5395 5394 5395 5396 5395 5395 5394 5392 5390 5388 5387 5387 5387 5387 5386 5385 5384 5383 5383 5382 5381 5380 5378 5376 5373 5371 5369 5368 5367 5366 5366 5365 5362 5360 5357 5354 5351 5348 5344 5341 5339 5338 5339 5338
5363 5366 5369 5371 5374 5379 5382 5383 5386 5386 5387 5389 5390 5391 5391 5390 5389 5388 5386 5383 5381 5380 5380 5380 5380 5380 5379 5379 5379 5378 5377 5376 5373 5371 5368 5366 5365 5364 5363 5362 5361 5360 5359 5357 5355 5353 5350 5347 5343 5340 5337 5336 5336 5336
5355 5359 5362 5365 5370 5373 5375 5377 5379 5380 5382 5383 5384 5385 5386 5385 5385 5384 5383 5381 5378 5377 5376 5375 5375 5375 5375 5375 5375 5374 5373 5372 5369 5367 5365 5364 5363 5363 5362 5361 5360 5359 5358 5356 5355 5352 5350 5348 5345 5343 5340 5338 5337 5337
5346 5351 5355 5359 5364 5367 5368 5370 5372 5374 5376 5377 5379 5380 5380 5381 5380 5380 5378 5378 5376 5374 5372 5370 5369 5370 5370 5370 5371 5370 5369 5368 5366 5365 5364 5363 5363 5362 5362 5360 5359 5358 5357 5355 5354 5352 5350 5348 5347 5345 5343 5341 5340 5339
5337 5342 5346 5351 5355 5358 5362 5364 5366 5368 5370 5371 5372 5373 5374 5374 5375 5375 5374 5373 5372 5370 5368 5366 5364 5363 5364 5365 5365 5366 5366 5365 5364 5363 5363 5363 5363 5362 5360 5359 5357 5357 5356 5356 5354 5352 5350 5348 5347 5345 5344 5343 5342 5342
Wind_Speed
47 48 48 46 43 42 37 35 36 38 41 45 48 48 43 40 37 34 31 30 30 27 28 28 29 30 30 31 27 28 27 30 33 35 36 37 39 47 55 55 39 36 45 41 39 41 46 45 42 41 44 43 40 37
46 47 47 44 42 41 37 37 38 41 46 49 45 40 37 36 33 32 30 29 25 20 19 22 23 23 23 24 23 24 26 27 33 36 38 38 37 39 50 51 57 41 42 43 42 39 40 40 37 35 33 33 34 41
45 45 44 42 42 41 38 38 41 46 48 43 38 35 35 33 32 30 27 25 20 15 12 16 17 16 16 18 19 19 23 23 29 35 38 39 38 37 37 48 54 54 46 42 36 44 43 39 35 35 31 31 29 28
44 44 41 40 40 39 39 41 45 47 41 39 33 33 31 26 25 25 19 17 18 11 9 11 12 12 9 13 16 19 19 19 25 32 38 40 40 39 31 32 47 50 55 46 41 33 40 44 43 39 36 32 34 31
43 42 40 38 38 38 40 44 46 43 42 36 29 28 27 26 22 25 20 20 20 13 6 7 11 7 8 8 10 13 17 20 22 27 36 41 41 44 35 30 34 46 53 59 41 43 37 40 44 45 40 33 36 36
41 40 38 36 35 39 42 43 42 44 41 31 25 25 24 25 23 23 16 13 11 11 9 7 9 9 6 6 10 11 13 17 20 24 29 41 43 48 48 38 28 26 38 47 46 33 43 40 35 37 38 37 40 40
39 37 35 34 34 39 40 41 43 45 37 28 23 22 22 20 22 14 9 9 10 13 12 8 9 7 5 7 10 9 10 11 16 19 23 30 46 48 55 48 37 32 34 40 41 53 37 39 36 44 42 40 39 38
36 35 33 31 34 37 38 39 44 43 36 27 21 18 18 20 18 11 11 13 10 15 13 12 7 6 8 8 7 3 4 8 12 16 18 22 34 50 52 47 47 45 36 29 35 40 44 48 44 36 33 48 45 41
34 32 29 30 34 33 35 40 42 40 31 20 11 13 20 19 15 11 12 12 13 14 11 4 5 7 8 10 9 7 5 5 2 2 8 18 23 35 50 51 45 41 35 36 34 32 36 41 42 45 48 40 37 42
32 29 26 30 29 30 34 38 39 38 28 9 7 9 16 17 18 10 12 11 10 10 7 3 2 7 11 10 8 9 7 5 11 4 9 11 12 23 37 49 53 51 45 34 31 35 36 39 40 43 40 47 54 38
28 25 25 28 25 27 32 36 34 34 21 9 12 12 14 16 17 15 12 5 5 3 4 1 3 8 13 11 10 10 13 6 4 6 7 6 6 9 16 35 49 51 47 43 32 32 30 30 37 46 49 50 47 51
25 23 24 24 24 26 30 32 30 26 12 11 10 13 14 15 17 11 7 2 4 5 4 2 3 9 12 9 6 7 9 1 3 4 5 3 3 4 11 17 33 44 47 46 44 39 35 38 31 35 38 39 45 52
22 21 22 19 22 26 28 27 26 19 6 9 9 13 13 15 5 5 2 2 5 7 5 3 5 7 11 10 3 4 7 4 8 5 2 2 3 3 6 18 13 22 41 44 48 48 46 42 34 31 39 37 30 28
20 19 19 17 21 23 25 23 23 20 9 9 14 11 14 7 1 3 4 5 5 8 10 9 8 8 9 9 1 6 7 1 6 5 2 2 3 3 2 10 15 14 22 42 46 44 46 43 39 36 36 35 33 30
19 17 15 16 18 21 21 20 20 21 16 7 5 4 3 1 2 3 6 7 7 9 9 10 10 8 10 5 3 2 4 3 3 2 2 1 2 3 3 9 14 14 19 27 38 43 46 49 42 40 39 38 34 33
17 15 12 12 15 16 17 16 16 16 14 7 6 5 5 6 7 8 9 8 10 12 9 11 12 11 8 7 4 2 2 6 8 6 4 3 4 4 2 2 5 12 17 20 26 33 39 43 44 42 39 39 39 37
15 13 10 9 11 11 12 14 13 13 12 11 9 9 9 12 13 12 12 15 12 12 15 16 14 10 11 8 3 3 8 12 12 11 11 11 11 11 10 12 10 8 8 10 14 21 28 33 37 44 43 43 44 45
14 12 8 7 5 6 9 11 11 11 12 14 15 15 10 11 14 17 21 21 19 17 18 16 16 13 11 13 10 11 13 13 13 16 19 18 16 15 15 15 15 14 15 16 17 18 21 28 36 42 50 52 52 51
15 13 9 5 3 3 6 7 8 9 12 13 14 14 11 10 11 15 17 20 19 18 17 14 14 5 3 7 11 13 15 14 11 12 13 14 15 16 15 16 16 18 19 20 22 26 28 30 33 38 45 53 59 58
18 15 11 7 6 2 4 7 10 12 12 13 14 15 17 17 17 16 16 17 18 18 15 12 10 13 13 16 18 17 18 18 20 21 15 14 15 16 15 16 18 21 24 28 30 32 32 30 31 33 39 46 54 57
21 17 14 11 11 7 3 4 6 8 9 12 15 16 17 19 20 18 18 18 23 22 16 16 14 14 13 15 16 15 14 15 17 17 18 15 15 16 18 21 24 28 30 27 22 18 16 16 16 18 18 23 32 45
23 21 19 14 14 11 7 3 4 5 6 8 8 8 11 16 19 22 24 22 19 16 17 16 14 13 16 14 16 13 11 10 7 8 10 13 15 19 23 26 18 8 6 11 9 11 10 14 14 16 18 19 18 16
26 24 24 18 17 15 12 9 5 2 2 3 5 7 9 12 16 18 21 24 27 25 21 13 2 6 10 14 12 12 9 10 10 11 13 16 14 7 5 5 5 6 9 11 11 10 11 13 15 16 18 21 20 19
28 27 28 25 19 19 17 14 12 9 7 5 6 8 10 12 14 16 18 16 18 20 20 21 19 14 9 3 2 5 7 9 8 4 2 1 3 3 4 5 4 5 7 10 11 12 12 13 14 15 17 14 16 17
31 30 31 29 24 21 18 16 14 10 8 6 5 7 8 11 12 14 15 15 13 13 13 13 13 12 11 9 7 6 5 5 4 3 2 2 2 5 5 8 12 16 16 15 16 16 16 17 16 15 15 13 14 19
31 31 30 27 29 26 23 18 17 15 13 12 11 10 10 10 10 11 12 12 13 12 10 9 10 11 10 7 5 4 3 2 3 4 5 7 9 11 12 14 15 17 18 19 20 20 20 19 18 18 17 15 15 13
35 31 24 22 24 27 27 26 23 20 18 16 15 14 14 13 14 15 15 15 14 14 13 12 11 10 10 10 10 10 10 11 11 12 13 15 17 18 19 19 19 20 22 23 24 25 26 28 26 23 20 16 15 16
33 24 18 21 24 27 28 28 26 23 22 19 19 19 19 19 21 22 21 21 20 18 16 14 14 15 15 15 16 14 13 13 14 17 20 21 22 23 24 24 23 24 24 25 24 23 22 19 17 15 12 12 13 11
27 21 21 21 25 27 25 22 20 17 16 18 16 13 11 12 14 16 17 18 19 19 18 17 17 16 15 15 9 9 12 15 19 21 19 18 20 20 19 22 22 18 17 15 14 15 15 17 16 14 11 10 8 6
26 25 26 26 26 20 17 18 17 19 18 13 10 9 9 10 12 15 15 15 16 18 17 17 16 14 12 11 10 11 14 18 21 17 16 15 10 11 13 10 8 7 8 9 11 11 12 14 15 14 11 3 2 2
28 28 28 27 21 20 20 21 19 17 15 13 10 10 10 11 14 15 16 18 15 14 14 15 15 13 12 12 13 12 14 18 18 13 10 6 6 5 4 5 5 4 5 7 8 8 9 10 10 12 11 9 6 3
32 30 29 26 23 24 23 21 19 16 14 13 12 12 12 13 13 13 16 17 17 16 16 15 17 15 12 12 13 13 13 15 13 8 6 2 3 4 5 7 9 10 9 9 10 9 8 7 8 8 10 12 12 10
36 34 32 30 29 27 24 23 21 19 17 17 17 16 15 15 14 14 17 18 19 19 19 18 15 15 15 12 11 12 13 11 9 5 1 3 2 5 6 4 4 8 9 10 12 12 10 6 5 5 5 5 6 6
Wind_Direction
318 321 322 324 323 321 318 316 316 316 317 316 315 315 314 312 310 310 307 306 301 291 283 273 264 259 260 259 259 252 248 239 236 233 229 226 220 221 227 225 198 191 210 224 222 225 231 230 227 232 231 235 231 227
317 319 321 322 321 319 316 316 317 318 318 317 318 318 316 313 311 311 313 311 306 296 278 271 266 261 256 257 257 251 247 237 233 229 227 224 221 219 221 230 225 202 197 213 224 222 229 234 234 232 232 235 237 227
316 318 318 320 319 318 315 317 319 320 320 321 323 319 316 313 314 315 315 313 312 303 282 285 271 263 258 254 251 255 247 238 231 228 223 222 218 218 220 224 227 226 201 193 208 223 224 226 231 237 234 230 233 227
314 316 316 319 318 315 315 319 321 322 323 323 321 320 318 318 327 324 321 326 328 309 295 302 281 271 257 262 260 252 253 246 235 227 220 219 214 212 208 213 226 228 228 204 194 196 223 224 226 231 236 230 234 234
312 314 315 318 317 313 316 321 324 326 323 321 320 321 321 311 320 318 308 304 303 306 292 279 284 261 265 272 264 253 248 247 240 231 221 216 213 206 199 200 218 222 229 230 226 217 199 214 226 230 234 213 223 229
311 312 315 317 314 313 318 324 327 327 321 322 318 320 315 311 318 308 298 287 296 289 282 318 278 281 303 304 312 296 261 248 243 236 227 217 213 208 205 206 210 221 225 228 219 191 214 202 181 199 209 221 232 231
310 310 313 314 312 315 322 325 331 326 323 319 315 317 317 319 318 309 295 307 303 293 289 314 293 295 317 338 322 294 260 238 243 240 233 226 218 214 210 212 202 198 217 223 229 215 195 198 215 225 219 219 222 224
308 307 311 311 313 318 322 330 332 327 323 317 313 315 318 323 317 300 297 314 285 299 291 287 269 280 280 300 288 274 287 257 251 249 238 236 226 219 214 209 213 219 219 218 224 226 225 218 215 221 234 236 239 232
304 305 309 310 315 317 324 332 333 330 327 323 309 308 318 328 323 312 304 298 292 308 308 276 245 309 320 297 274 244 252 251 351 326 264 251 242 227 218 210 206 211 211 216 202 208 225 217 226 233 231 223 235 242
301 304 307 311 315 317 328 334 336 332 321 319 323 303 316 323 334 337 339 325 294 307 309 296 288 303 310 312 295 234 223 312 325 238 320 307 255 242 228 218 213 209 208 207 215 223 227 226 224 221 224 223 226 229
298 302 305 312 311 325 332 336 338 335 320 269 287 310 310 310 326 320 324 354 4 356 330 350 341 323 317 303 245 242 223 298 3 338 326 312 276 250 238 222 217 217 218 216 215 217 223 222 230 229 230 232 230 232
294 297 304 310 308 325 330 337 341 337 309 266 267 285 304 312 320 315 289 291 291 278 293 21 42 18 11 340 241 255 227 187 315 327 353 8 346 214 193 207 216 218 217 218 215 206 218 215 210 212 216 230 241 233
289 293 305 304 314 328 332 339 348 342 324 286 274 297 308 312 311 43 29 307 305 300 330 9 346 340 360 353 214 178 175 234 272 298 51 348 32 11 204 185 181 213 219 218 222 223 220 210 218 220 217 217 206 216
283 289 305 300 320 331 333 346 355 5 323 288 283 301 305 285 147 55 350 336 326 338 342 333 322 311 315 1 63 175 206 164 105 75 62 1 22 360 251 189 170 184 209 220 227 230 233 235 238 235 230 226 223 227
274 287 295 304 322 331 334 349 358 8 21 345 345 47 52 64 352 320 319 325 327 321 332 336 313 294 296 278 340 239 239 194 136 156 147 168 354 10 153 178 177 193 202 211 223 231 237 242 240 239 243 237 231 227
266 286 283 307 324 330 337 347 354 3 12 10 3 345 336 321 314 311 312 317 324 319 309 317 311 315 253 277 261 230 219 238 248 244 230 257 271 287 275 276 230 217 213 215 217 225 233 241 244 244 243 241 241 240
258 275 275 306 322 330 340 344 349 349 343 342 338 328 326 324 321 314 302 297 306 299 289 297 298 300 251 274 293 293 243 239 240 236 257 266 275 265 264 256 262 271 263 242 233 229 230 235 240 244 245 244 242 242
251 250 254 294 311 335 347 345 346 341 328 332 331 331 325 300 297 295 294 298 301 298 293 294 289 285 270 253 277 270 277 273 257 245 251 256 267 275 258 260 263 264 271 268 266 252 246 240 241 246 248 248 247 246
237 231 237 264 238 332 12 15 10 351 354 356 343 341 344 332 309 290 288 289 295 298 297 298 290 316 297 250 262 250 255 256 248 265 269 270 270 263 262 267 267 270 273 271 265 264 262 260 254 250 248 249 248 249
225 222 220 226 200 191 67 50 44 36 27 17 12 359 353 347 335 323 312 306 310 310 311 302 279 278 247 240 251 259 246 243 251 264 265 279 275 271 268 270 277 282 281 272 268 267 270 271 271 266 260 256 253 251
220 216 212 209 197 192 141 87 60 42 29 28 22 17 11 6 2 357 334 317 315 312 300 291 282 258 250 248 254 258 261 262 258 256 274 281 274 275 280 285 285 283 281 280 278 276 275 280 278 277 274 269 263 256
216 213 207 206 202 199 181 133 71 29 11 30 21 22 26 23 20 16 10 3 350 315 294 284 276 273 245 255 266 269 269 280 276 272 273 275 279 282 282 284 296 298 292 302 287 296 277 288 286 281 270 276 267 277
214 213 207 205 207 204 200 188 219 254 338 4 348 355 9 22 22 17 15 18 18 23 28 33 345 247 244 245 251 259 274 275 276 278 276 276 280 288 307 310 309 294 283 284 282 294 301 293 294 301 296 272 266 261
214 214 213 207 205 209 212 217 227 240 263 294 315 327 325 334 347 0 9 13 26 37 42 50 58 62 63 78 234 250 260 267 271 263 170 260 332 295 280 283 282 294 309 313 310 307 304 304 304 310 313 292 262 268
216 216 219 210 203 209 216 221 224 230 244 261 284 301 318 325 333 334 338 346 359 2 15 25 34 45 58 61 70 81 95 98 124 335 271 266 276 304 299 285 282 299 311 314 313 307 305 305 307 303 301 305 299 284
219 225 225 220 216 222 228 233 238 243 254 263 266 272 280 294 309 326 333 330 327 331 337 346 350 352 356 14 48 52 44 358 302 288 279 275 279 284 287 293 303 314 318 321 321 314 308 305 306 309 316 308 314 318
217 226 225 223 221 225 230 237 242 249 255 261 267 272 274 277 284 293 300 302 313 315 310 306 306 308 311 316 317 312 305 300 293 287 285 287 287 288 291 297 301 307 306 309 313 310 307 306 303 295 288 297 311 315
220 223 221 219 220 222 227 233 239 245 253 261 263 268 275 281 283 285 288 287 287 289 298 305 298 294 299 305 305 302 298 297 296 294 288 283 281 283 288 293 298 306 310 314 318 317 316 316 320 312 292 285 297 304
216 216 214 214 218 224 228 232 237 242 244 247 258 269 277 286 304 312 299 292 289 280 277 285 298 295 295 300 292 300 311 314 317 316 313 306 286 284 294 297 298 308 311 317 325 325 330 339 337 323 297 276 275 283
208 212 211 216 223 229 226 225 222 223 235 246 250 252 271 295 321 340 344 326 303 294 279 272 282 293 299 288 288 303 312 322 321 319 317 315 294 288 289 288 297 316 335 347 349 350 354 352 350 352 356 318 254 271
205 212 213 219 217 214 212 217 220 227 235 239 243 253 268 286 303 320 332 348 340 328 310 284 277 285 282 283 291 292 311 324 326 321 321 331 313 289 304 317 315 335 357 7 0 352 357 8 30 39 43 41 44 57
204 211 213 216 213 215 218 219 225 231 232 237 243 252 265 280 295 312 318 324 335 343 336 313 280 270 271 271 288 287 303 319 331 325 328 317 247 285 311 311 309 309 309 314 320 329 342 355 12 29 34 40 50 59
203 208 211 213 216 221 227 232 235 235 238 244 248 254 261 271 285 298 309 313 317 321 331 335 315 277 264 265 277 284 289 311 325 326 291 265 288 322 321 338 44 74 70 60 54 46 33 13 351 347 4 19 23 30